Date String (YYYY-MM-DD hh:mm:ss) UTC,Instrument flags,Ambient pressure (hPa),Sample flow (lpm),Bypass flow (lpm),Sample temperature (°C),Ambient temperature (°C),ASC tube jacket temperature (°C),LED temperature (°C),Box temperature (°C),Sample RH (%),Span deviation,Mass concentration (μg/m³),Mass concentration (μg/m³),Mass concentration (μg/m³)
DateTimeUTC,F1_M11,P_M11,Q1_M11,Q2_M11,T1_M11,T2_M11,T3_M11,T4_M11,T5_M11,U1_M11,ZSPAN_M11,X2_M11,X0_M11,X1_M11
2022-03-23 01:00:00,,0829.1,5.00,0.00,21.9,21.1,00.0,31.1,23.6,08.4,0000.0,0000.69,0001.42,0000.45
2022-03-23 01:01:00,,0829.0,4.99,0.00,21.9,21.1,00.0,31.1,23.6,08.4,0000.0,0000.64,0001.30,0000.44
2022-03-23 01:02:00,,0829.1,5.00,0.00,21.9,21.1,00.0,31.0,23.6,08.5,0000.0,0000.67,0001.34,0000.44
2022-03-23 01:03:00,,0829.1,5.00,0.00,21.9,21.1,00.0,31.0,23.6,08.5,0000.0,0000.65,0001.27,0000.44
2022-03-23 01:04:00,,0829.1,5.00,0.00,21.9,21.1,00.0,31.0,23.6,08.6,0000.0,0000.61,0001.14,0000.44
2022-03-23 01:05:00,,0829.1,5.00,0.00,21.9,21.1,00.0,31.0,23.6,08.4,0000.0,0000.60,0001.11,0000.44
2022-03-23 01:06:00,,0829.1,5.00,0.00,21.9,21.1,00.0,31.0,23.6,08.4,0000.0,0000.60,0001.05,0000.44
2022-03-23 01:07:00,,0829.1,5.00,0.00,21.9,21.1,00.0,31.0,23.5,08.4,0000.0,0000.59,0001.01,0000.44
2022-03-23 01:08:00,,0829.0,5.01,0.00,21.8,21.1,00.0,31.0,23.5,08.3,0000.0,0000.58,0000.98,0000.44
2022-03-23 01:09:00,,0829.2,5.00,0.00,21.8,21.0,00.0,31.0,23.5,08.3,0000.0,0000.62,0001.07,0000.45
2022-03-23 01:10:00,,0829.2,5.01,0.00,21.8,21.0,00.0,30.9,23.5,08.4,0000.0,0000.65,0001.08,0000.46
2022-03-23 01:11:00,,0829.3,5.01,0.00,21.8,21.0,00.0,30.9,23.5,08.4,0000.0,0000.67,0001.17,0000.46
2022-03-23 01:12:00,,0829.2,4.99,0.00,21.9,21.6,00.0,30.9,23.6,08.4,0000.0,0000.68,0001.24,0000.47
2022-03-23 01:13:00,,0829.5,5.00,0.00,22.0,22.5,00.0,31.0,23.9,08.4,0000.0,0000.67,0001.24,0000.47
2022-03-23 01:14:00,,0829.3,5.01,0.00,22.1,22.9,00.0,31.0,24.1,08.3,0000.0,0000.70,0001.28,0000.48
2022-03-23 01:15:00,,0829.5,5.00,0.00,22.2,22.7,00.0,31.0,24.1,08.2,0000.0,0000.73,0001.37,0000.50
2022-03-23 01:16:00,,0829.3,4.99,0.00,22.2,22.5,00.0,31.0,24.1,08.3,0000.0,0000.80,0001.61,0000.51
2022-03-23 01:17:00,,0829.3,4.99,0.00,22.2,22.2,00.0,31.1,24.0,08.3,0000.0,0000.81,0001.63,0000.52
2022-03-23 01:18:00,,0829.5,5.01,0.00,22.2,22.0,00.0,31.1,24.0,08.3,0000.0,0000.85,0001.67,0000.52
2022-03-23 01:19:00,,0829.4,4.99,0.00,22.2,21.9,00.0,31.1,23.9,08.3,0000.0,0000.87,0001.70,0000.53
2022-03-23 01:20:00,,0829.3,5.00,0.00,22.2,21.8,00.0,31.1,23.9,08.2,0000.0,0000.89,0001.69,0000.53
2022-03-23 01:21:00,,0829.2,5.00,0.00,22.1,21.7,00.0,31.1,23.9,08.2,0000.0,0000.87,0001.62,0000.53
2022-03-23 01:22:00,,0829.2,5.00,0.00,22.1,21.6,00.0,31.1,23.8,08.2,0000.0,0000.85,0001.50,0000.53
2022-03-23 01:23:00,,0829.2,5.00,0.00,22.1,21.5,00.0,31.1,23.8,08.2,0000.0,0000.83,0001.42,0000.54
2022-03-23 01:24:00,,0829.2,5.00,0.00,22.1,21.5,00.0,31.1,23.8,08.3,0000.0,0000.83,0001.48,0000.54
2022-03-23 01:25:00,,0829.2,5.00,0.00,22.1,21.4,00.0,31.1,23.8,08.3,0000.0,0000.86,0001.54,0000.54
2022-03-23 01:26:00,,0829.3,5.01,0.00,22.0,21.4,00.0,31.1,23.8,08.2,0000.0,0000.88,0001.58,0000.55
2022-03-23 01:27:00,,0829.3,5.00,0.00,22.0,21.3,00.0,31.1,23.8,08.3,0000.0,0000.86,0001.44,0000.55
2022-03-23 01:28:00,,0829.2,5.00,0.00,22.0,21.3,00.0,31.1,23.7,08.2,0000.0,0000.85,0001.43,0000.54
2022-03-23 01:29:00,,0829.3,5.00,0.00,22.0,21.2,00.0,31.1,23.7,08.3,0000.0,0000.82,0001.41,0000.54
2022-03-23 01:30:00,,0829.2,5.00,0.00,22.0,21.2,00.0,31.0,23.7,08.3,0000.0,0000.80,0001.38,0000.53
2022-03-23 01:31:00,,0829.2,5.00,0.00,22.0,21.2,00.0,31.0,23.7,08.3,0000.0,0000.78,0001.36,0000.53
2022-03-23 01:32:00,,0829.2,5.00,0.00,22.0,21.2,00.0,31.0,23.7,08.4,0000.0,0000.78,0001.35,0000.53
2022-03-23 01:33:00,,0829.4,5.00,0.00,22.0,21.2,00.0,31.0,23.7,08.4,0000.0,0000.80,0001.42,0000.53
2022-03-23 01:34:00,,0829.2,5.00,0.00,22.0,21.2,00.0,31.0,23.7,08.4,0000.0,0000.84,0001.53,0000.53
2022-03-23 01:35:00,,0829.3,5.01,0.00,21.9,21.2,00.0,31.0,23.7,08.5,0000.0,0000.85,0001.53,0000.53
2022-03-23 01:36:00,,0829.4,4.99,0.00,21.9,21.2,00.0,31.0,23.7,08.4,0000.0,0000.83,0001.47,0000.53
2022-03-23 01:37:00,,0829.4,5.00,0.00,21.9,21.2,00.0,31.0,23.7,08.5,0000.0,0000.81,0001.48,0000.51
2022-03-23 01:38:00,,0829.4,5.00,0.00,21.9,21.2,00.0,31.0,23.7,08.5,0000.0,0000.78,0001.43,0000.51
2022-03-23 01:39:00,,0829.4,5.00,0.00,21.9,21.2,00.0,31.0,23.7,08.5,0000.0,0000.79,0001.44,0000.52
2022-03-23 01:40:00,,0829.5,5.01,0.00,21.9,21.2,00.0,31.0,23.7,08.5,0000.0,0000.81,0001.67,0000.51
2022-03-23 01:41:00,,0829.5,5.00,0.00,21.9,21.2,00.0,30.9,23.7,08.4,0000.0,0000.83,0001.77,0000.52
2022-03-23 01:42:00,,0829.4,4.99,0.00,21.9,21.2,00.0,30.9,23.7,08.4,0000.0,0000.84,0001.79,0000.53
2022-03-23 01:43:00,,0829.2,4.99,0.00,21.9,21.1,00.0,30.9,23.6,08.2,0000.0,0000.84,0001.83,0000.53
2022-03-23 01:44:00,,0829.2,5.00,0.00,21.9,21.1,00.0,30.9,23.6,08.1,0000.0,0000.83,0001.79,0000.52
2022-03-23 01:45:00,,0829.2,5.00,0.00,21.8,21.0,00.0,30.9,23.5,08.1,0000.0,0000.80,0001.72,0000.52
2022-03-23 01:46:00,,0829.4,5.00,0.00,21.8,21.0,00.0,30.9,23.5,08.0,0000.0,0000.78,0001.71,0000.52
2022-03-23 01:47:00,,0829.3,5.00,0.00,21.8,20.9,00.0,30.9,23.5,07.9,0000.0,0000.78,0001.72,0000.51
2022-03-23 01:48:00,,0829.2,5.01,0.00,21.8,20.9,00.0,30.9,23.4,08.0,0000.0,0000.80,0001.76,0000.51
2022-03-23 01:49:00,,0829.5,5.00,0.00,21.8,20.9,00.0,30.9,23.4,08.0,0000.0,0000.79,0001.70,0000.50
2022-03-23 01:50:00,,0829.2,5.00,0.00,21.7,20.9,00.0,30.8,23.3,08.0,0000.0,0000.77,0001.66,0000.50
2022-03-23 01:51:00,,0829.2,4.98,0.00,21.7,20.8,00.0,30.8,23.3,08.0,0000.0,0000.74,0001.43,0000.50
2022-03-23 01:52:00,,0829.2,5.01,0.00,21.7,21.1,00.0,30.8,23.3,08.0,0000.0,0000.74,0001.34,0000.50
2022-03-23 01:53:00,,0829.2,5.02,0.00,21.8,21.9,00.0,30.9,23.6,08.0,0000.0,0000.74,0001.30,0000.50
2022-03-23 01:54:00,,0829.2,4.99,0.00,22.0,22.7,00.0,30.9,23.9,07.9,0000.0,0000.72,0001.87,0000.49
2022-03-23 01:55:00,,0829.2,5.01,0.00,22.0,22.6,00.0,30.9,23.9,08.0,0000.0,0000.70,0002.54,0000.49
2022-03-23 01:56:00,,0829.2,5.00,0.00,22.0,22.3,00.0,30.9,23.8,08.0,0000.0,0000.69,0002.50,0000.48
2022-03-23 01:57:00,,0829.2,4.99,0.00,22.0,22.0,00.0,30.9,23.7,08.1,0000.0,0000.71,0002.51,0000.48
2022-03-23 01:58:00,,0829.3,5.01,0.00,21.9,21.7,00.0,30.9,23.6,08.1,0000.0,0000.71,0002.50,0000.49
2022-03-23 01:59:00,,0829.2,4.98,0.00,21.9,21.5,00.0,30.9,23.6,08.2,0000.0,0000.71,0002.48,0000.49
